Wetterdaten: Woche 04.11.13 - 10.11.13 (KW45)
Datum Zeit Temperatur Luftfeuchte Luftdruck Niederschlag Windrichtung Sonnenschein Solar Wind
04.11.2013 00:00 4,9 C 87 % 1008,1 hPa 0,0 l/m SW 0,00 h 0 W/m 14,0 km/h (3 Bft)
04.11.2013 01:00 4,7 C 88 % 1007,3 hPa 0,0 l/m SW 0,00 h 0 W/m 10,8 km/h (2 Bft)
04.11.2013 02:00 4,7 C 87 % 1006,1 hPa 0,0 l/m SW 0,00 h 0 W/m 9,8 km/h (2 Bft)
04.11.2013 03:00 4,0 C 90 % 1004,6 hPa 0,0 l/m SW 0,00 h 0 W/m 6,8 km/h (2 Bft)
04.11.2013 04:00 4,7 C 88 % 1003,3 hPa 0,0 l/m S-SW 0,00 h 0 W/m 9,5 km/h (2 Bft)
04.11.2013 05:00 4,6 C 88 % 1002,0 hPa 0,0 l/m S-SW 0,00 h 0 W/m 6,8 km/h (2 Bft)
04.11.2013 06:00 4,5 C 88 % 1000,8 hPa 0,0 l/m SW 0,00 h 0 W/m 13,3 km/h (3 Bft)
04.11.2013 07:00 5,2 C 84 % 1000,0 hPa 0,0 l/m SW 0,00 h 7 W/m 12,8 km/h (3 Bft)
04.11.2013 08:00 5,7 C 84 % 999,3 hPa 0,0 l/m SW 0,00 h 37 W/m 12,2 km/h (2 Bft)
04.11.2013 09:00 7,9 C 76 % 998,7 hPa 0,0 l/m W 0,00 h 113 W/m 26,0 km/h (4 Bft)
04.11.2013 10:00 9,9 C 73 % 997,7 hPa 0,0 l/m W-SW 0,42 h 222 W/m 31,9 km/h (5 Bft)
04.11.2013 11:00 11,3 C 72 % 996,6 hPa 0,0 l/m W-SW 1,00 h 369 W/m 32,2 km/h (5 Bft)
04.11.2013 12:00 11,6 C 72 % 995,5 hPa 0,0 l/m W 0,33 h 229 W/m 31,5 km/h (5 Bft)
04.11.2013 13:00 11,3 C 75 % 994,7 hPa 0,0 l/m W-SW 0,67 h 216 W/m 33,9 km/h (5 Bft)
04.11.2013 14:00 10,7 C 77 % 993,9 hPa 0,0 l/m W-SW 0,00 h 108 W/m 31,8 km/h (5 Bft)
04.11.2013 15:00 10,3 C 78 % 993,8 hPa 0,0 l/m W 0,25 h 94 W/m 28,7 km/h (4 Bft)
04.11.2013 16:00 9,7 C 81 % 993,7 hPa 0,0 l/m W 0,00 h 20 W/m 28,7 km/h (4 Bft)
04.11.2013 17:00 9,1 C 84 % 993,8 hPa 0,0 l/m SW 0,00 h 0 W/m 23,6 km/h (4 Bft)
04.11.2013 18:00 9,0 C 84 % 993,9 hPa 0,0 l/m W-SW 0,00 h 0 W/m 31,0 km/h (5 Bft)
04.11.2013 19:00 9,1 C 84 % 994,6 hPa 0,0 l/m W-SW 0,00 h 0 W/m 34,9 km/h (5 Bft)
04.11.2013 20:00 8,6 C 88 % 995,1 hPa 0,0 l/m W-SW 0,00 h 0 W/m 30,2 km/h (5 Bft)
04.11.2013 21:00 8,3 C 90 % 995,7 hPa 0,0 l/m W-SW 0,00 h 0 W/m 24,1 km/h (4 Bft)
04.11.2013 22:00 8,0 C 91 % 995,7 hPa 0,2 l/m W-SW 0,00 h 0 W/m 24,4 km/h (4 Bft)
04.11.2013 23:00 7,9 C 91 % 996,3 hPa 0,0 l/m W-SW 0,00 h 0 W/m 18,9 km/h (3 Bft)
05.11.2013 00:00 7,8 C 91 % 997,0 hPa 0,0 l/m W 0,00 h 0 W/m 10,3 km/h (2 Bft)
05.11.2013 01:00 7,4 C 91 % 997,8 hPa 0,2 l/m NW 0,00 h 0 W/m 11,4 km/h (2 Bft)
05.11.2013 02:00 6,7 C 91 % 998,6 hPa 0,0 l/m W-NW 0,00 h 0 W/m 9,5 km/h (2 Bft)
05.11.2013 03:00 6,0 C 90 % 999,2 hPa 0,2 l/m N 0,00 h 0 W/m 2,7 km/h (1 Bft)
05.11.2013 04:00 5,0 C 90 % 1000,1 hPa 0,0 l/m N-NW 0,00 h 0 W/m 4,7 km/h (1 Bft)
05.11.2013 05:00 3,9 C 90 % 1000,8 hPa 0,0 l/m N 0,00 h 0 W/m 0,9 km/h (0 Bft)
05.11.2013 06:00 2,5 C 90 % 1001,4 hPa 0,0 l/m N 0,00 h 0 W/m 0,4 km/h (0 Bft)
05.11.2013 07:00 1,9 C 92 % 1002,2 hPa 0,0 l/m N 0,00 h 14 W/m 0,3 km/h (0 Bft)
05.11.2013 08:00 1,9 C 93 % 1002,8 hPa 0,0 l/m N 0,08 h 49 W/m 0,5 km/h (0 Bft)
05.11.2013 09:00 3,1 C 95 % 1002,7 hPa 0,0 l/m SW 1,00 h 247 W/m 8,5 km/h (2 Bft)
05.11.2013 10:00 5,7 C 84 % 1002,2 hPa 0,0 l/m W-SW 1,00 h 365 W/m 17,2 km/h (3 Bft)
05.11.2013 11:00 6,9 C 77 % 1001,8 hPa 0,0 l/m W-SW 0,75 h 423 W/m 18,8 km/h (3 Bft)
05.11.2013 12:00 7,9 C 72 % 1000,9 hPa 0,0 l/m W-SW 0,83 h 402 W/m 24,7 km/h (4 Bft)
05.11.2013 13:00 7,9 C 72 % 1000,2 hPa 0,0 l/m W-SW 1,00 h 438 W/m 27,5 km/h (4 Bft)
05.11.2013 14:00 7,3 C 75 % 999,8 hPa 0,0 l/m W-SW 0,08 h 116 W/m 19,6 km/h (3 Bft)
05.11.2013 15:00 7,0 C 76 % 999,5 hPa 0,0 l/m W-SW 0,00 h 54 W/m 15,7 km/h (3 Bft)
05.11.2013 16:00 6,2 C 82 % 999,0 hPa 0,0 l/m W-SW 0,00 h 23 W/m 9,1 km/h (2 Bft)
05.11.2013 17:00 5,8 C 85 % 998,7 hPa 0,0 l/m W-SW 0,00 h 0 W/m 9,1 km/h (2 Bft)
05.11.2013 18:00 6,3 C 80 % 998,4 hPa 0,0 l/m W-SW 0,00 h 0 W/m 23,3 km/h (4 Bft)
05.11.2013 19:00 5,5 C 86 % 997,9 hPa 0,4 l/m W-SW 0,00 h 0 W/m 23,5 km/h (4 Bft)
05.11.2013 20:00 5,2 C 92 % 997,6 hPa 0,4 l/m W-SW 0,00 h 0 W/m 21,0 km/h (4 Bft)
05.11.2013 21:00 5,6 C 93 % 998,0 hPa 0,0 l/m SW 0,00 h 0 W/m 29,5 km/h (5 Bft)
05.11.2013 22:00 6,2 C 93 % 998,4 hPa 0,0 l/m W-SW 0,00 h 0 W/m 25,7 km/h (4 Bft)
05.11.2013 23:00 6,7 C 93 % 999,4 hPa 0,0 l/m W-SW 0,00 h 0 W/m 22,6 km/h (4 Bft)
06.11.2013 00:00 6,6 C 92 % 1000,0 hPa 0,0 l/m W-SW 0,00 h 0 W/m 17,6 km/h (3 Bft)
06.11.2013 01:00 6,7 C 89 % 1001,2 hPa 0,0 l/m W-SW 0,00 h 0 W/m 20,9 km/h (4 Bft)
06.11.2013 02:00 6,9 C 87 % 1002,5 hPa 0,0 l/m W-SW 0,00 h 0 W/m 20,1 km/h (4 Bft)
06.11.2013 03:00 7,0 C 87 % 1003,1 hPa 0,0 l/m W-SW 0,00 h 0 W/m 18,5 km/h (3 Bft)
06.11.2013 04:00 7,2 C 88 % 1003,7 hPa 0,0 l/m W-SW 0,00 h 0 W/m 17,8 km/h (3 Bft)
06.11.2013 05:00 7,2 C 91 % 1003,7 hPa 0,0 l/m W-SW 0,00 h 0 W/m 20,8 km/h (4 Bft)
06.11.2013 06:00 7,2 C 92 % 1004,0 hPa 0,2 l/m W-SW 0,00 h 0 W/m 21,7 km/h (4 Bft)
06.11.2013 07:00 7,3 C 91 % 1004,5 hPa 0,0 l/m W-SW 0,00 h 10 W/m 24,1 km/h (4 Bft)
06.11.2013 08:00 7,7 C 91 % 1005,5 hPa 0,0 l/m W-SW 0,00 h 34 W/m 23,6 km/h (4 Bft)
06.11.2013 09:00 8,3 C 90 % 1005,9 hPa 0,0 l/m W-SW 0,00 h 68 W/m 21,4 km/h (4 Bft)
06.11.2013 10:00 8,9 C 91 % 1005,9 hPa 0,0 l/m SW 0,00 h 67 W/m 18,5 km/h (3 Bft)
06.11.2013 11:00 9,4 C 92 % 1006,1 hPa 0,0 l/m W-SW 0,00 h 82 W/m 23,3 km/h (4 Bft)
06.11.2013 12:00 9,6 C 94 % 1006,4 hPa 0,0 l/m W 0,00 h 69 W/m 19,7 km/h (3 Bft)
06.11.2013 13:00 10,3 C 94 % 1006,8 hPa 0,0 l/m W-SW 0,00 h 37 W/m 18,4 km/h (3 Bft)
06.11.2013 14:00 11,1 C 94 % 1007,3 hPa 0,0 l/m W-SW 0,00 h 41 W/m 23,9 km/h (4 Bft)
06.11.2013 15:00 11,4 C 93 % 1007,9 hPa 0,0 l/m W-SW 0,00 h 21 W/m 24,1 km/h (4 Bft)
06.11.2013 16:00 11,5 C 91 % 1008,4 hPa 0,2 l/m W-SW 0,08 h 15 W/m 27,7 km/h (4 Bft)
06.11.2013 17:00 11,7 C 86 % 1009,2 hPa 0,0 l/m W-SW 0,00 h 0 W/m 40,3 km/h (6 Bft)
06.11.2013 18:00 11,8 C 81 % 1010,1 hPa 0,0 l/m SW 0,00 h 0 W/m 35,7 km/h (5 Bft)
06.11.2013 19:00 11,8 C 80 % 1011,2 hPa 0,0 l/m W 0,00 h 0 W/m 32,3 km/h (5 Bft)
06.11.2013 20:00 11,5 C 81 % 1011,1 hPa 0,0 l/m W-SW 0,00 h 0 W/m 23,5 km/h (4 Bft)
06.11.2013 21:00 11,5 C 80 % 1011,4 hPa 0,0 l/m W-SW 0,00 h 0 W/m 24,3 km/h (4 Bft)
06.11.2013 22:00 11,5 C 82 % 1011,4 hPa 0,0 l/m W-SW 0,00 h 0 W/m 25,2 km/h (4 Bft)
06.11.2013 23:00 11,9 C 80 % 1011,6 hPa 0,0 l/m W 0,00 h 0 W/m 28,6 km/h (4 Bft)
07.11.2013 00:00 12,1 C 79 % 1011,7 hPa 0,0 l/m W-SW 0,00 h 0 W/m 29,5 km/h (5 Bft)
07.11.2013 01:00 11,8 C 78 % 1011,5 hPa 0,0 l/m W-SW 0,00 h 0 W/m 23,9 km/h (4 Bft)
07.11.2013 02:00 11,9 C 78 % 1011,3 hPa 0,0 l/m W-SW 0,00 h 0 W/m 27,9 km/h (4 Bft)
07.11.2013 03:00 12,5 C 78 % 1011,1 hPa 0,0 l/m W-SW 0,00 h 0 W/m 31,0 km/h (5 Bft)
07.11.2013 04:00 12,3 C 81 % 1011,2 hPa 0,0 l/m SW 0,00 h 0 W/m 21,5 km/h (4 Bft)
07.11.2013 05:00 11,7 C 83 % 1011,7 hPa 0,0 l/m W-SW 0,00 h 0 W/m 19,6 km/h (3 Bft)
07.11.2013 06:00 11,7 C 84 % 1011,5 hPa 0,0 l/m W-SW 0,00 h 0 W/m 20,9 km/h (4 Bft)
07.11.2013 07:00 11,9 C 83 % 1011,6 hPa 0,0 l/m W-SW 0,08 h 12 W/m 26,4 km/h (4 Bft)
07.11.2013 08:00 11,6 C 84 % 1012,3 hPa 0,0 l/m W-SW 0,17 h 48 W/m 25,1 km/h (4 Bft)
07.11.2013 09:00 12,7 C 81 % 1012,6 hPa 0,0 l/m W 0,92 h 232 W/m 29,0 km/h (5 Bft)
07.11.2013 10:00 14,2 C 75 % 1012,9 hPa 0,0 l/m W 1,00 h 356 W/m 32,7 km/h (5 Bft)
07.11.2013 11:00 15,3 C 70 % 1012,8 hPa 0,0 l/m W-SW 0,92 h 394 W/m 32,1 km/h (5 Bft)
07.11.2013 12:00 15,8 C 68 % 1012,6 hPa 0,0 l/m W 0,83 h 337 W/m 28,2 km/h (4 Bft)
07.11.2013 13:00 15,9 C 66 % 1012,5 hPa 0,0 l/m W-SW 0,33 h 217 W/m 30,5 km/h (5 Bft)
07.11.2013 14:00 15,7 C 67 % 1012,4 hPa 0,0 l/m W-SW 0,25 h 136 W/m 24,9 km/h (4 Bft)
07.11.2013 15:00 15,1 C 70 % 1012,7 hPa 0,0 l/m W 0,00 h 58 W/m 20,9 km/h (4 Bft)
07.11.2013 16:00 14,3 C 73 % 1012,5 hPa 0,0 l/m SW 0,00 h 18 W/m 18,4 km/h (3 Bft)
07.11.2013 17:00 13,4 C 76 % 1012,7 hPa 0,0 l/m SW 0,00 h 0 W/m 14,4 km/h (3 Bft)
07.11.2013 18:00 12,9 C 78 % 1012,9 hPa 0,0 l/m SW 0,00 h 0 W/m 12,2 km/h (2 Bft)
07.11.2013 19:00 11,7 C 82 % 1012,7 hPa 0,0 l/m SW 0,00 h 0 W/m 9,0 km/h (2 Bft)
07.11.2013 20:00 11,6 C 84 % 1012,4 hPa 0,0 l/m W-SW 0,00 h 0 W/m 13,3 km/h (3 Bft)
07.11.2013 21:00 11,1 C 84 % 1012,5 hPa 0,0 l/m SW 0,00 h 0 W/m 5,4 km/h (1 Bft)
07.11.2013 22:00 9,7 C 87 % 1012,3 hPa 0,0 l/m SW 0,00 h 0 W/m 5,3 km/h (1 Bft)
07.11.2013 23:00 8,7 C 90 % 1012,0 hPa 0,0 l/m SW 0,00 h 0 W/m 6,0 km/h (2 Bft)
08.11.2013 00:00 8,3 C 92 % 1011,7 hPa 0,0 l/m SW 0,00 h 0 W/m 4,5 km/h (1 Bft)
08.11.2013 01:00 7,8 C 93 % 1011,6 hPa 0,0 l/m SW 0,00 h 0 W/m 4,1 km/h (1 Bft)
08.11.2013 02:00 8,3 C 94 % 1011,4 hPa 0,0 l/m SW 0,00 h 0 W/m 13,3 km/h (3 Bft)
08.11.2013 03:00 9,9 C 86 % 1011,2 hPa 0,0 l/m SW 0,00 h 0 W/m 13,3 km/h (3 Bft)
08.11.2013 04:00 8,7 C 86 % 1010,9 hPa 0,0 l/m SW 0,00 h 0 W/m 7,8 km/h (2 Bft)
08.11.2013 05:00 8,5 C 87 % 1011,0 hPa 0,0 l/m SW 0,00 h 0 W/m 10,5 km/h (2 Bft)
08.11.2013 06:00 7,9 C 88 % 1011,0 hPa 0,0 l/m SW 0,00 h 0 W/m 10,6 km/h (2 Bft)
08.11.2013 07:00 8,4 C 87 % 1011,1 hPa 0,0 l/m SW 0,00 h 11 W/m 9,0 km/h (2 Bft)
08.11.2013 08:00 7,9 C 89 % 1011,2 hPa 0,0 l/m SW 0,17 h 56 W/m 6,0 km/h (2 Bft)
08.11.2013 09:00 10,9 C 84 % 1011,1 hPa 0,0 l/m SW 0,42 h 128 W/m 12,4 km/h (3 Bft)
08.11.2013 10:00 12,2 C 80 % 1010,9 hPa 0,0 l/m S-SW 0,67 h 293 W/m 14,8 km/h (3 Bft)
08.11.2013 11:00 12,8 C 76 % 1010,6 hPa 0,0 l/m S-SW 0,08 h 108 W/m 14,9 km/h (3 Bft)
08.11.2013 12:00 13,0 C 79 % 1010,2 hPa 0,0 l/m SW 0,00 h 93 W/m 9,7 km/h (2 Bft)
08.11.2013 13:00 13,8 C 78 % 1009,9 hPa 0,0 l/m SW 0,00 h 101 W/m 9,3 km/h (2 Bft)
08.11.2013 14:00 14,7 C 74 % 1009,6 hPa 0,0 l/m W-SW 0,00 h 72 W/m 15,4 km/h (3 Bft)
08.11.2013 15:00 14,3 C 77 % 1009,4 hPa 0,0 l/m W-SW 0,00 h 38 W/m 7,8 km/h (2 Bft)
08.11.2013 16:00 13,9 C 79 % 1009,1 hPa 0,0 l/m W-SW 0,00 h 11 W/m 4,1 km/h (1 Bft)
08.11.2013 17:00 13,0 C 83 % 1009,0 hPa 0,0 l/m W-SW 0,00 h 0 W/m 3,5 km/h (1 Bft)
08.11.2013 18:00 12,3 C 85 % 1008,5 hPa 0,0 l/m W-SW 0,00 h 0 W/m 8,4 km/h (2 Bft)
08.11.2013 19:00 12,6 C 82 % 1007,8 hPa 0,0 l/m W-SW 0,00 h 0 W/m 7,5 km/h (2 Bft)
08.11.2013 20:00 12,3 C 83 % 1007,3 hPa 0,0 l/m W-SW 0,00 h 0 W/m 6,4 km/h (2 Bft)
08.11.2013 21:00 12,1 C 83 % 1007,1 hPa 0,0 l/m W-SW 0,00 h 0 W/m 2,9 km/h (1 Bft)
08.11.2013 22:00 11,5 C 87 % 1007,8 hPa 0,0 l/m W-SW 0,00 h 0 W/m 9,0 km/h (2 Bft)
08.11.2013 23:00 11,5 C 89 % 1008,8 hPa 0,4 l/m W 0,00 h 0 W/m 28,4 km/h (4 Bft)
09.11.2013 00:00 9,3 C 90 % 1009,9 hPa 1,0 l/m W-SW 0,00 h 0 W/m 22,1 km/h (4 Bft)
09.11.2013 01:00 8,7 C 93 % 1010,9 hPa 2,6 l/m SW 0,00 h 0 W/m 18,0 km/h (3 Bft)
09.11.2013 02:00 8,2 C 95 % 1011,4 hPa 1,4 l/m SW 0,00 h 0 W/m 18,8 km/h (3 Bft)
09.11.2013 03:00 7,6 C 95 % 1011,7 hPa 0,0 l/m SW 0,00 h 0 W/m 17,2 km/h (3 Bft)
09.11.2013 04:00 7,2 C 96 % 1011,8 hPa 0,0 l/m SW 0,00 h 0 W/m 15,2 km/h (3 Bft)
09.11.2013 05:00 7,3 C 94 % 1012,1 hPa 0,0 l/m W-SW 0,00 h 0 W/m 20,4 km/h (4 Bft)
09.11.2013 06:00 7,3 C 91 % 1012,8 hPa 0,0 l/m W-SW 0,00 h 0 W/m 18,6 km/h (3 Bft)
09.11.2013 07:00 7,2 C 90 % 1013,4 hPa 0,0 l/m W-SW 0,00 h 8 W/m 17,0 km/h (3 Bft)
09.11.2013 08:00 7,2 C 91 % 1013,9 hPa 0,0 l/m W-SW 0,00 h 31 W/m 14,2 km/h (3 Bft)
09.11.2013 09:00 7,7 C 90 % 1014,4 hPa 0,0 l/m W-SW 0,17 h 77 W/m 14,1 km/h (3 Bft)
09.11.2013 10:00 8,5 C 86 % 1014,4 hPa 0,0 l/m SW 0,58 h 268 W/m 15,7 km/h (3 Bft)
09.11.2013 11:00 9,2 C 76 % 1014,2 hPa 0,0 l/m W 0,25 h 198 W/m 16,8 km/h (3 Bft)
09.11.2013 12:00 9,6 C 71 % 1014,0 hPa 0,0 l/m W 0,42 h 288 W/m 14,9 km/h (3 Bft)
09.11.2013 13:00 9,4 C 72 % 1013,5 hPa 0,0 l/m W-SW 0,33 h 178 W/m 18,4 km/h (3 Bft)
09.11.2013 14:00 9,5 C 69 % 1012,9 hPa 0,0 l/m W-SW 0,92 h 258 W/m 18,2 km/h (3 Bft)
09.11.2013 15:00 9,1 C 69 % 1012,7 hPa 0,0 l/m W-SW 0,58 h 120 W/m 16,0 km/h (3 Bft)
09.11.2013 16:00 8,1 C 72 % 1012,3 hPa 0,0 l/m W-SW 0,17 h 24 W/m 11,6 km/h (2 Bft)
09.11.2013 17:00 6,9 C 76 % 1012,2 hPa 0,0 l/m W-SW 0,00 h 0 W/m 4,8 km/h (1 Bft)
09.11.2013 18:00 5,4 C 85 % 1011,8 hPa 0,0 l/m W-SW 0,00 h 0 W/m 3,1 km/h (1 Bft)
09.11.2013 19:00 4,1 C 90 % 1011,3 hPa 0,0 l/m N 0,00 h 0 W/m 0,0 km/h (0 Bft)
09.11.2013 20:00 3,2 C 94 % 1010,5 hPa 0,0 l/m N 0,00 h 0 W/m 0,4 km/h (0 Bft)
09.11.2013 21:00 2,4 C 95 % 1010,1 hPa 0,0 l/m N 0,00 h 0 W/m 0,0 km/h (0 Bft)
09.11.2013 22:00 1,9 C 96 % 1009,8 hPa 0,0 l/m N 0,00 h 0 W/m 0,1 km/h (0 Bft)
09.11.2013 23:00 2,0 C 96 % 1009,3 hPa 0,0 l/m W-SW 0,00 h 0 W/m 3,3 km/h (1 Bft)
10.11.2013 00:00 4,1 C 97 % 1009,1 hPa 0,0 l/m SW 0,00 h 0 W/m 14,6 km/h (3 Bft)
10.11.2013 01:00 5,2 C 94 % 1009,1 hPa 0,0 l/m SW 0,00 h 0 W/m 19,7 km/h (3 Bft)
10.11.2013 02:00 6,1 C 86 % 1008,7 hPa 0,0 l/m SW 0,00 h 0 W/m 16,9 km/h (3 Bft)
10.11.2013 03:00 6,2 C 85 % 1007,4 hPa 0,0 l/m SW 0,00 h 0 W/m 22,1 km/h (4 Bft)
10.11.2013 04:00 6,2 C 84 % 1006,5 hPa 0,0 l/m W-SW 0,00 h 0 W/m 20,6 km/h (4 Bft)
10.11.2013 05:00 6,4 C 83 % 1004,9 hPa 0,0 l/m W-SW 0,00 h 0 W/m 18,2 km/h (3 Bft)
10.11.2013 06:00 6,2 C 84 % 1003,8 hPa 0,0 l/m W-SW 0,00 h 0 W/m 9,4 km/h (2 Bft)
10.11.2013 07:00 5,7 C 87 % 1002,9 hPa 0,0 l/m W-SW 0,00 h 5 W/m 4,8 km/h (1 Bft)
10.11.2013 08:00 5,6 C 90 % 1002,2 hPa 0,8 l/m W-SW 0,00 h 10 W/m 2,3 km/h (1 Bft)
10.11.2013 09:00 5,4 C 92 % 1001,4 hPa 1,6 l/m N 0,00 h 13 W/m 1,1 km/h (0 Bft)
10.11.2013 10:00 5,4 C 94 % 1001,0 hPa 1,6 l/m SW 0,00 h 21 W/m 2,1 km/h (1 Bft)
10.11.2013 11:00 5,2 C 95 % 1000,4 hPa 2,8 l/m SW 0,00 h 24 W/m 5,8 km/h (1 Bft)
10.11.2013 12:00 4,8 C 95 % 1000,0 hPa 4,4 l/m N-NW 0,00 h 25 W/m 5,7 km/h (1 Bft)
10.11.2013 13:00 4,1 C 94 % 1001,2 hPa 1,8 l/m N 0,00 h 33 W/m 14,5 km/h (3 Bft)
10.11.2013 14:00 2,5 C 94 % 1004,3 hPa 0,6 l/m N-NW 0,00 h 37 W/m 15,6 km/h (3 Bft)
10.11.2013 15:00 2,8 C 95 % 1006,9 hPa 0,6 l/m NW 0,00 h 21 W/m 15,8 km/h (3 Bft)
10.11.2013 16:00 2,7 C 95 % 1009,1 hPa 0,4 l/m NW 0,00 h 6 W/m 14,2 km/h (3 Bft)
10.11.2013 17:00 2,6 C 95 % 1011,3 hPa 0,0 l/m NW 0,00 h 0 W/m 14,2 km/h (3 Bft)
10.11.2013 18:00 2,6 C 95 % 1013,5 hPa 0,0 l/m N-NW 0,00 h 0 W/m 10,2 km/h (2 Bft)
10.11.2013 19:00 2,6 C 95 % 1015,1 hPa 0,0 l/m N-NW 0,00 h 0 W/m 7,8 km/h (2 Bft)
10.11.2013 20:00 2,7 C 95 % 1016,5 hPa 0,0 l/m N-NW 0,00 h 0 W/m 9,3 km/h (2 Bft)
10.11.2013 21:00 2,5 C 96 % 1017,7 hPa 0,0 l/m N-NW 0,00 h 0 W/m 8,8 km/h (2 Bft)
10.11.2013 22:00 2,6 C 95 % 1018,9 hPa 0,0 l/m N-NW 0,00 h 0 W/m 9,3 km/h (2 Bft)
10.11.2013 23:00 2,6 C 95 % 1020,1 hPa 0,0 l/m N 0,00 h 0 W/m 9,7 km/h (2 Bft)
Min-Datum _ 09.11.13 07.11.13 04.11.13 - - - - 05.11.13
_ Min-Zeit 22:45 13:05 16:50 - - - - 00:20
Minimum _ 1,8 C 64 % 993,4 hPa - - - - 0,0 km/h (0 Bft)
Max-Datum _ 07.11.13 10.11.13 10.11.13 10.11.13 - 04.11.13 05.11.13 06.11.13
_ Max-Zeit 12:55 19:05 23:55 12:25 - 10:05 12:25 17:05
Maximum _ 16,4 C 100 % 1020,6 hPa 4,4 l/m - 0,08 h 594 W/m 51,5 km/h
W-SW (7 Bft)
Durchschnitt _ 8,3 C 86 % 1006,7 hPa #21,8 l/m W-SW #16:45 h 119 W/m 16,4 km/h (3 Bft)